GWIZZ BIRK-BGSF

Flight info

Callsign GWIZZ
Flight time N/A
Altitude 12000
Route SORIR DCT SOPEN DCT NONRO DCT DA DCT MASIK DCT PEVAR DCT WUTAN DCT KEFOP
Aircraft PA24/L-SDGRY/S

Departure

Time 2026-04-23 09:37
Airport Reykjavík Domestic Airport (BIRK)

Arrival

Time N/A
Airport Kangerlussuaq International Airport (BGSF)
Time Latitude Longitude Altitude Speed Heading
2026-04-23 09:31 64.13222 -21.93179 41 ft 0 kts 182°
2026-04-23 09:34 64.13226 -21.93227 41 ft 11 kts 334°
2026-04-23 09:34 64.13252 -21.93398 40 ft 13 kts 246°
2026-04-23 09:35 64.13185 -21.93546 43 ft 15 kts 197°
2026-04-23 09:35 64.13065 -21.93556 42 ft 17 kts 184°
2026-04-23 09:35 64.12947 -21.93557 41 ft 15 kts 168°
2026-04-23 09:35 64.12888 -21.93498 40 ft 9 kts 174°
2026-04-23 09:36 64.12839 -21.93603 38 ft 12 kts 285°
2026-04-23 09:36 64.12923 -21.93998 40 ft 51 kts 296°
2026-04-23 09:36 64.13103 -21.94958 69 ft 73 kts 296°
2026-04-23 09:36 64.13338 -21.96123 208 ft 88 kts 295°
2026-04-23 09:37 64.13462 -21.97579 431 ft 101 kts 276°
2026-04-23 09:37 64.13599 -21.99205 730 ft 107 kts 290°
2026-04-23 09:37 64.13775 -22.00856 1070 ft 105 kts 286°
2026-04-23 09:37 64.13930 -22.02451 1379 ft 101 kts 285°
2026-04-23 09:38 64.14096 -22.04060 1567 ft 109 kts 287°
2026-04-23 09:38 64.14293 -22.05825 1690 ft 119 kts 287°
2026-04-23 09:38 64.14499 -22.07720 1814 ft 126 kts 286°
2026-04-23 09:38 64.14714 -22.09704 1936 ft 129 kts 287°
2026-04-23 09:39 64.14933 -22.11723 2057 ft 132 kts 287°
2026-04-23 09:39 64.15154 -22.13778 2171 ft 133 kts 287°
2026-04-23 09:39 64.15378 -22.15840 2280 ft 133 kts 287°
2026-04-23 09:39 64.15599 -22.17879 2386 ft 134 kts 287°
2026-04-23 09:40 64.15822 -22.19953 2496 ft 134 kts 287°
2026-04-23 09:40 64.16046 -22.22032 2605 ft 134 kts 287°
2026-04-23 09:40 64.16269 -22.24105 2705 ft 134 kts 287°
2026-04-23 09:40 64.16494 -22.26181 2812 ft 134 kts 287°
2026-04-23 09:41 64.16715 -22.28253 2915 ft 134 kts 286°
2026-04-23 09:41 64.16934 -22.30320 3019 ft 134 kts 287°
2026-04-23 09:41 64.17154 -22.32387 3112 ft 133 kts 287°
2026-04-23 09:41 64.17384 -22.34437 3221 ft 133 kts 287°
2026-04-23 09:42 64.17598 -22.36491 3322 ft 132 kts 287°
2026-04-23 09:42 64.17812 -22.38532 3424 ft 131 kts 287°
2026-04-23 09:42 64.18027 -22.40555 3524 ft 130 kts 287°
2026-04-23 09:42 64.18240 -22.42563 3625 ft 129 kts 287°
2026-04-23 09:43 64.18451 -22.44552 3727 ft 128 kts 286°
2026-04-23 09:43 64.18661 -22.46542 3828 ft 128 kts 287°
2026-04-23 09:43 64.18872 -22.48525 3928 ft 128 kts 286°
2026-04-23 09:43 64.19081 -22.50503 4026 ft 128 kts 286°
2026-04-23 09:44 64.19289 -22.52486 4125 ft 128 kts 286°
2026-04-23 09:44 64.19493 -22.54480 4232 ft 128 kts 284°
2026-04-23 09:44 64.19706 -22.56470 4333 ft 128 kts 284°
2026-04-23 09:44 64.19917 -22.58461 4435 ft 128 kts 284°
2026-04-23 09:45 64.20126 -22.60450 4536 ft 128 kts 284°
2026-04-23 09:45 64.20334 -22.62441 4639 ft 128 kts 284°
2026-04-23 09:45 64.20543 -22.64433 4743 ft 128 kts 284°
2026-04-23 09:45 64.20750 -22.66423 4845 ft 128 kts 284°
2026-04-23 09:46 64.20957 -22.68403 4948 ft 127 kts 284°
2026-04-23 09:46 64.21162 -22.70378 5052 ft 127 kts 284°
2026-04-23 09:46 64.21367 -22.72357 5157 ft 128 kts 284°
2026-04-23 09:46 64.21571 -22.74369 5261 ft 130 kts 282°
2026-04-23 09:47 64.21780 -22.76378 5364 ft 132 kts 283°
2026-04-23 09:47 64.21998 -22.78434 5464 ft 133 kts 283°
2026-04-23 09:47 64.22212 -22.80513 5568 ft 134 kts 283°
2026-04-23 09:47 64.22428 -22.82602 5669 ft 135 kts 283°
2026-04-23 09:48 64.22645 -22.84707 5772 ft 136 kts 283°
2026-04-23 09:48 64.22862 -22.86816 5875 ft 136 kts 283°
2026-04-23 09:48 64.23079 -22.88930 5977 ft 136 kts 283°
2026-04-23 09:48 64.23298 -22.91067 6038 ft 139 kts 283°
2026-04-23 09:49 64.23447 -22.92504 6075 ft 140 kts 283°
2026-04-23 09:49 64.23671 -22.94688 6131 ft 140 kts 283°
2026-04-23 09:49 64.23893 -22.96868 6181 ft 141 kts 283°
2026-04-23 09:49 64.24114 -22.99067 6236 ft 142 kts 283°
2026-04-23 09:50 64.24341 -23.01282 6288 ft 142 kts 283°
2026-04-23 09:50 64.24567 -23.03496 6337 ft 143 kts 283°
2026-04-23 09:50 64.24793 -23.05727 6392 ft 143 kts 283°
2026-04-23 09:50 64.25025 -23.07950 6447 ft 142 kts 284°
2026-04-23 09:51 64.25248 -23.10158 6498 ft 141 kts 282°
2026-04-23 09:51 64.25464 -23.12356 6549 ft 141 kts 281°
2026-04-23 09:51 64.25683 -23.14553 6599 ft 141 kts 283°
2026-04-23 09:51 64.25907 -23.16742 6653 ft 140 kts 282°
2026-04-23 09:52 64.26122 -23.18927 6699 ft 140 kts 281°
2026-04-23 09:52 64.26335 -23.21117 6751 ft 141 kts 283°
2026-04-23 09:52 64.26562 -23.23318 6802 ft 142 kts 283°
2026-04-23 09:52 64.26795 -23.25520 6855 ft 141 kts 282°
2026-04-23 09:53 64.27004 -23.27736 6905 ft 142 kts 282°
2026-04-23 09:53 64.27225 -23.29955 6950 ft 142 kts 282°
2026-04-23 09:53 64.27449 -23.32171 7002 ft 142 kts 285°
2026-04-23 09:53 64.27678 -23.34373 7048 ft 141 kts 282°
2026-04-23 09:54 64.27884 -23.36568 7099 ft 140 kts 282°
2026-04-23 09:54 64.28098 -23.38752 7146 ft 140 kts 282°
2026-04-23 09:54 64.28307 -23.40939 7192 ft 141 kts 282°
2026-04-23 09:54 64.28530 -23.43130 7239 ft 140 kts 283°
2026-04-23 09:55 64.28746 -23.45314 7291 ft 139 kts 282°
2026-04-23 09:55 64.28960 -23.47494 7340 ft 139 kts 282°
2026-04-23 09:55 64.29172 -23.49669 7388 ft 139 kts 282°
2026-04-23 09:55 64.29383 -23.51828 7440 ft 142 kts 282°
2026-04-23 09:56 64.29602 -23.54067 7494 ft 144 kts 282°
2026-04-23 09:56 64.29822 -23.56318 7597 ft 144 kts 282°
2026-04-23 09:56 64.30041 -23.58564 7697 ft 144 kts 282°
2026-04-23 09:56 64.30259 -23.60812 7797 ft 143 kts 282°
2026-04-23 09:57 64.30477 -23.63055 7899 ft 143 kts 282°
2026-04-23 09:57 64.30695 -23.65301 7999 ft 144 kts 282°
2026-04-23 09:57 64.30912 -23.67551 8099 ft 144 kts 282°
2026-04-23 09:57 64.31130 -23.69802 8198 ft 144 kts 282°
2026-04-23 09:58 64.31342 -23.72067 8291 ft 145 kts 282°
2026-04-23 09:58 64.31566 -23.74338 8392 ft 146 kts 283°
2026-04-23 09:58 64.31787 -23.76630 8494 ft 147 kts 282°
2026-04-23 09:58 64.32008 -23.78928 8599 ft 146 kts 282°
2026-04-23 09:59 64.32236 -23.81199 8703 ft 145 kts 281°
2026-04-23 09:59 64.32440 -23.83488 8804 ft 146 kts 282°
2026-04-23 09:59 64.32660 -23.85773 8905 ft 146 kts 282°
2026-04-23 09:59 64.32879 -23.88057 9009 ft 146 kts 282°
2026-04-23 10:00 64.33114 -23.90328 9112 ft 145 kts 282°
2026-04-23 10:00 64.33314 -23.92599 9215 ft 144 kts 281°
2026-04-23 10:00 64.33517 -23.94874 9317 ft 145 kts 284°
2026-04-23 10:00 64.33747 -23.97128 9423 ft 144 kts 282°
2026-04-23 10:01 64.33955 -23.99394 9523 ft 144 kts 282°
2026-04-23 10:01 64.34165 -24.01648 9631 ft 144 kts 282°
2026-04-23 10:01 64.34372 -24.03914 9733 ft 145 kts 282°
2026-04-23 10:01 64.34590 -24.06192 9838 ft 146 kts 282°
2026-04-23 10:02 64.34807 -24.08481 9948 ft 146 kts 283°
2026-04-23 10:02 64.35023 -24.10767 10056 ft 145 kts 282°
2026-04-23 10:02 64.35234 -24.13054 10128 ft 147 kts 282°
2026-04-23 10:02 64.35458 -24.15451 10011 ft 158 kts 282°
2026-04-23 10:03 64.35694 -24.17971 9887 ft 163 kts 282°
2026-04-23 10:03 64.35934 -24.20568 9764 ft 167 kts 282°
2026-04-23 10:03 64.36177 -24.23178 9640 ft 169 kts 282°
2026-04-23 10:03 64.36427 -24.25871 9511 ft 170 kts 282°
2026-04-23 10:04 64.36670 -24.28511 9386 ft 171 kts 282°
2026-04-23 10:04 64.36917 -24.31195 9257 ft 171 kts 282°
2026-04-23 10:04 64.37164 -24.33882 9130 ft 171 kts 282°
2026-04-23 10:04 64.37410 -24.36571 9006 ft 171 kts 282°
2026-04-23 10:05 64.37656 -24.39257 8872 ft 171 kts 282°
2026-04-23 10:05 64.37901 -24.41941 8744 ft 171 kts 282°
2026-04-23 10:05 64.38145 -24.44624 8618 ft 171 kts 282°
2026-04-23 10:05 64.38389 -24.47305 8490 ft 170 kts 282°
2026-04-23 10:06 64.38630 -24.49967 8439 ft 167 kts 282°
2026-04-23 10:06 64.38863 -24.52556 8430 ft 163 kts 282°
2026-04-23 10:06 64.39091 -24.55081 8429 ft 158 kts 282°
2026-04-23 10:06 64.39313 -24.57550 8423 ft 156 kts 281°
2026-04-23 10:07 64.39531 -24.59990 8417 ft 155 kts 282°
2026-04-23 10:07 64.39749 -24.62418 8413 ft 154 kts 281°
2026-04-23 10:07 64.39965 -24.64837 8411 ft 153 kts 281°
2026-04-23 10:07 64.40181 -24.67251 8410 ft 153 kts 281°
2026-04-23 10:08 64.40409 -24.69659 8408 ft 153 kts 285°
2026-04-23 10:08 64.40747 -24.71995 8402 ft 153 kts 288°
2026-04-23 10:08 64.41078 -24.74298 8401 ft 153 kts 288°
2026-04-23 10:09 64.41739 -24.78988 8395 ft 152 kts 288°
2026-04-23 10:09 64.42063 -24.81282 8396 ft 152 kts 287°
2026-04-23 10:09 64.42400 -24.83581 8396 ft 150 kts 286°
2026-04-23 10:09 64.42707 -24.85889 8395 ft 150 kts 286°
2026-04-23 10:10 64.43042 -24.88176 8398 ft 149 kts 289°
2026-04-23 10:10 64.43359 -24.90457 8398 ft 148 kts 284°
2026-04-23 10:10 64.43659 -24.92737 8421 ft 148 kts 290°
2026-04-23 10:10 64.43989 -24.94977 8437 ft 147 kts 285°
2026-04-23 10:11 64.44291 -24.97247 8463 ft 148 kts 288°
2026-04-23 10:11 64.44624 -24.99509 8476 ft 148 kts 286°
2026-04-23 10:11 64.44927 -25.01798 8483 ft 149 kts 287°
2026-04-23 10:11 64.45267 -25.04048 8486 ft 147 kts 286°
2026-04-23 10:12 64.45563 -25.06273 8487 ft 146 kts 285°
2026-04-23 10:12 64.45868 -25.08515 8487 ft 146 kts 285°
2026-04-23 10:12 64.46181 -25.10776 8487 ft 146 kts 286°
2026-04-23 10:12 64.46486 -25.12981 8486 ft 146 kts 286°
2026-04-23 10:13 64.46792 -25.15229 8484 ft 147 kts 285°
2026-04-23 10:13 64.47108 -25.17494 8485 ft 148 kts 287°
2026-04-23 10:13 64.47427 -25.19752 8486 ft 147 kts 285°
2026-04-23 10:13 64.47735 -25.22019 8482 ft 147 kts 285°
2026-04-23 10:14 64.48043 -25.24269 8482 ft 146 kts 283°
2026-04-23 10:14 64.48326 -25.26532 8477 ft 147 kts 286°
2026-04-23 10:14 64.48659 -25.28801 8477 ft 148 kts 291°
2026-04-23 10:14 64.48979 -25.31074 8478 ft 149 kts 285°
2026-04-23 10:15 64.49295 -25.33356 8481 ft 148 kts 287°
2026-04-23 10:15 64.49589 -25.35626 8481 ft 147 kts 288°
2026-04-23 10:15 64.49918 -25.37861 8484 ft 146 kts 286°
2026-04-23 10:15 64.50201 -25.40121 8483 ft 146 kts 281°
2026-04-23 10:16 64.50495 -25.42393 8480 ft 148 kts 287°
2026-04-23 10:16 64.50823 -25.44664 8481 ft 148 kts 287°
2026-04-23 10:16 64.51136 -25.46947 8482 ft 149 kts 287°
2026-04-23 10:16 64.51453 -25.49231 8484 ft 148 kts 285°
2026-04-23 10:17 64.51751 -25.51513 8482 ft 148 kts 285°
2026-04-23 10:17 64.52060 -25.53805 8482 ft 149 kts 286°
2026-04-23 10:17 64.52372 -25.56108 8481 ft 150 kts 286°
2026-04-23 10:17 64.52684 -25.58418 8481 ft 150 kts 286°
2026-04-23 10:18 64.52995 -25.60732 8481 ft 150 kts 286°
2026-04-23 10:18 64.53306 -25.63047 8482 ft 150 kts 286°
2026-04-23 10:18 64.53628 -25.65306 8481 ft 148 kts 287°
2026-04-23 10:18 64.53919 -25.67591 8480 ft 147 kts 281°
2026-04-23 10:19 64.54239 -25.69841 8484 ft 146 kts 289°
2026-04-23 10:19 64.54524 -25.72103 8481 ft 145 kts 279°
2026-04-23 10:19 64.54799 -25.74389 8476 ft 148 kts 293°
2026-04-23 10:19 64.55139 -25.76630 8479 ft 147 kts 284°
2026-04-23 10:20 64.55421 -25.78934 8478 ft 149 kts 285°
2026-04-23 10:20 64.55753 -25.81205 8480 ft 148 kts 286°
2026-04-23 10:20 64.56036 -25.83496 8480 ft 147 kts 282°
2026-04-23 10:20 64.56335 -25.85783 8482 ft 148 kts 290°
2026-04-23 10:21 64.56654 -25.88041 8480 ft 146 kts 284°
2026-04-23 10:21 64.56936 -25.90310 8481 ft 146 kts 284°
2026-04-23 10:21 64.57230 -25.92561 8480 ft 145 kts 285°
2026-04-23 10:21 64.57526 -25.94808 8480 ft 145 kts 285°
2026-04-23 10:22 64.57822 -25.97053 8480 ft 145 kts 285°
2026-04-23 10:22 64.58116 -25.99299 8479 ft 145 kts 285°
2026-04-23 10:22 64.58412 -26.01547 8478 ft 145 kts 285°
2026-04-23 10:22 64.58688 -26.03812 8476 ft 146 kts 285°
2026-04-23 10:23 64.59008 -26.06070 8477 ft 147 kts 290°
2026-04-23 10:23 64.59317 -26.08330 8481 ft 146 kts 279°
2026-04-23 10:23 64.59579 -26.10625 8477 ft 147 kts 285°
2026-04-23 10:23 64.59893 -26.12862 8480 ft 147 kts 289°
2026-04-23 10:24 64.60192 -26.15164 8477 ft 147 kts 283°
2026-04-23 10:24 64.60518 -26.17375 8477 ft 146 kts 284°
2026-04-23 10:24 64.60768 -26.19679 8473 ft 145 kts 279°
2026-04-23 10:24 64.61082 -26.21875 8478 ft 145 kts 286°
2026-04-23 10:25 64.61362 -26.24124 8480 ft 144 kts 278°
2026-04-23 10:25 64.61619 -26.26391 8476 ft 146 kts 284°
2026-04-23 10:25 64.61929 -26.28656 8476 ft 147 kts 285°
2026-04-23 10:25 64.62230 -26.30945 8477 ft 148 kts 284°
2026-04-23 10:26 64.62527 -26.33242 8479 ft 148 kts 284°
2026-04-23 10:26 64.62821 -26.35537 8479 ft 147 kts 284°
2026-04-23 10:26 64.63115 -26.37826 8479 ft 147 kts 284°
2026-04-23 10:26 64.63408 -26.40117 8479 ft 147 kts 284°
2026-04-23 10:27 64.63705 -26.42403 8483 ft 147 kts 285°
2026-04-23 10:27 64.63987 -26.44689 8482 ft 147 kts 283°
2026-04-23 10:27 64.64277 -26.46978 8481 ft 147 kts 285°
2026-04-23 10:27 64.64583 -26.49262 8483 ft 147 kts 288°
2026-04-23 10:28 64.64890 -26.51529 8472 ft 145 kts 282°
2026-04-23 10:28 64.65140 -26.53809 8470 ft 145 kts 287°
2026-04-23 10:28 64.65462 -26.56034 8474 ft 145 kts 284°
2026-04-23 10:28 64.65699 -26.58275 8469 ft 145 kts 280°
2026-04-23 10:29 64.65991 -26.60539 8468 ft 146 kts 286°
2026-04-23 10:29 64.66294 -26.62798 8469 ft 146 kts 283°
2026-04-23 10:29 64.66577 -26.65087 8470 ft 147 kts 288°
2026-04-23 10:29 64.66892 -26.67349 8471 ft 146 kts 283°
2026-04-23 10:30 64.67158 -26.69628 8468 ft 145 kts 282°
2026-04-23 10:30 64.67432 -26.71896 8466 ft 145 kts 281°
2026-04-23 10:30 64.67708 -26.74173 8465 ft 146 kts 284°
2026-04-23 10:30 64.68014 -26.76441 8466 ft 146 kts 283°
2026-04-23 10:31 64.68292 -26.78710 8470 ft 145 kts 283°
2026-04-23 10:31 64.68572 -26.80971 8467 ft 145 kts 283°
2026-04-23 10:31 64.68849 -26.83224 8468 ft 144 kts 283°
2026-04-23 10:31 64.69130 -26.85465 8469 ft 143 kts 283°
2026-04-23 10:32 64.69409 -26.87700 8465 ft 143 kts 283°
2026-04-23 10:32 64.69686 -26.89936 8464 ft 143 kts 282°
2026-04-23 10:32 64.69925 -26.92189 8456 ft 144 kts 283°
2026-04-23 10:32 64.70327 -26.94360 8457 ft 146 kts 291°
2026-04-23 10:33 64.70712 -26.96562 8460 ft 146 kts 294°
2026-04-23 10:33 64.71090 -26.98724 8464 ft 144 kts 292°
2026-04-23 10:33 64.71471 -27.00888 8465 ft 143 kts 281°
2026-04-23 10:33 64.71782 -27.03116 8460 ft 146 kts 294°
2026-04-23 10:34 64.72193 -27.05273 8463 ft 145 kts 287°
2026-04-23 10:34 64.72544 -27.07498 8462 ft 147 kts 289°
2026-04-23 10:34 64.72926 -27.09733 8462 ft 148 kts 289°
2026-04-23 10:34 64.73306 -27.11971 8463 ft 149 kts 289°
2026-04-23 10:35 64.73688 -27.14222 8481 ft 149 kts 288°
2026-04-23 10:35 64.74070 -27.16458 8484 ft 147 kts 290°
2026-04-23 10:35 64.74435 -27.18677 8485 ft 145 kts 285°
2026-04-23 10:35 64.74835 -27.20849 8485 ft 145 kts 293°
2026-04-23 10:36 64.75194 -27.23027 8486 ft 143 kts 289°
2026-04-23 10:36 64.75532 -27.25217 8485 ft 143 kts 283°
2026-04-23 10:36 64.75893 -27.27410 8485 ft 145 kts 293°
2026-04-23 10:36 64.76148 -27.28853 8487 ft 145 kts 287°
2026-04-23 10:37 64.76541 -27.31017 8489 ft 144 kts 289°
2026-04-23 10:37 64.76888 -27.33203 8480 ft 143 kts 285°
2026-04-23 10:37 64.77352 -27.36089 8480 ft 143 kts 287°
2026-04-23 10:37 64.77594 -27.37551 8480 ft 143 kts 287°
2026-04-23 10:38 64.77946 -27.39733 8478 ft 144 kts 286°
2026-04-23 10:38 64.78328 -27.41906 8480 ft 144 kts 289°
2026-04-23 10:38 64.78691 -27.44088 8480 ft 143 kts 286°
2026-04-23 10:38 64.79024 -27.46300 8476 ft 145 kts 287°
2026-04-23 10:39 64.79409 -27.48489 8478 ft 146 kts 288°
2026-04-23 10:39 64.79808 -27.50681 8478 ft 145 kts 291°
2026-04-23 10:39 64.80161 -27.52874 8482 ft 144 kts 288°
2026-04-23 10:39 64.80505 -27.55073 8481 ft 143 kts 282°
2026-04-23 10:40 64.80840 -27.57283 8477 ft 145 kts 289°
2026-04-23 10:40 64.81238 -27.59468 8478 ft 145 kts 288°
2026-04-23 10:40 64.81585 -27.61663 8478 ft 146 kts 287°
2026-04-23 10:40 64.81949 -27.63889 8479 ft 146 kts 288°
2026-04-23 10:41 64.82316 -27.66120 8479 ft 147 kts 288°
2026-04-23 10:41 64.82684 -27.68360 8479 ft 147 kts 288°
2026-04-23 10:41 64.83065 -27.70590 8481 ft 147 kts 293°
2026-04-23 10:41 64.83435 -27.72799 8471 ft 144 kts 280°
2026-04-23 10:42 64.83799 -27.74979 8480 ft 143 kts 290°
2026-04-23 10:42 64.84111 -27.77187 8479 ft 143 kts 284°
2026-04-23 10:42 64.84503 -27.79340 8486 ft 144 kts 288°
2026-04-23 10:42 64.84873 -27.81535 8487 ft 144 kts 289°
2026-04-23 10:43 64.85181 -27.83764 8492 ft 144 kts 285°
2026-04-23 10:43 64.85576 -27.85928 8494 ft 144 kts 290°
2026-04-23 10:43 64.85924 -27.88125 8493 ft 143 kts 284°
2026-04-23 10:43 64.86261 -27.90313 8494 ft 143 kts 286°
2026-04-23 10:44 64.86611 -27.92496 8492 ft 143 kts 286°
2026-04-23 10:44 64.86965 -27.94682 8491 ft 143 kts 286°
2026-04-23 10:44 64.87296 -27.96892 8487 ft 144 kts 289°
2026-04-23 10:44 64.87699 -27.99041 8487 ft 142 kts 285°
2026-04-23 10:45 64.88018 -28.01264 8485 ft 145 kts 287°
2026-04-23 10:45 64.88403 -28.03431 8493 ft 143 kts 285°
2026-04-23 10:45 64.88791 -28.05566 8488 ft 141 kts 289°
2026-04-23 10:45 64.89112 -28.07705 8500 ft 140 kts 290°
2026-04-23 10:46 64.89415 -28.09883 8505 ft 141 kts 283°
2026-04-23 10:46 64.89743 -28.12076 8500 ft 143 kts 288°
2026-04-23 10:46 64.90109 -28.14263 8502 ft 144 kts 288°
2026-04-23 10:46 64.90464 -28.16461 8506 ft 144 kts 288°
2026-04-23 10:47 64.90822 -28.18651 8506 ft 142 kts 286°
2026-04-23 10:47 64.91149 -28.20845 8505 ft 142 kts 286°
2026-04-23 10:47 64.91504 -28.23031 8507 ft 143 kts 288°
2026-04-23 10:47 64.91869 -28.25227 8510 ft 143 kts 295°
2026-04-23 10:48 64.92247 -28.27367 8502 ft 139 kts 279°
2026-04-23 10:48 64.92580 -28.29510 8507 ft 139 kts 287°
2026-04-23 10:48 64.92883 -28.31693 8505 ft 141 kts 290°
2026-04-23 10:48 64.93243 -28.33843 8510 ft 141 kts 286°
2026-04-23 10:49 64.93605 -28.36001 8509 ft 141 kts 290°
2026-04-23 10:49 64.93927 -28.38171 8510 ft 140 kts 287°
2026-04-23 10:49 64.94252 -28.40341 8511 ft 141 kts 284°
2026-04-23 10:49 64.94598 -28.42514 8514 ft 141 kts 288°
2026-04-23 10:50 64.94934 -28.44644 8518 ft 140 kts 285°
2026-04-23 10:50 64.95267 -28.46793 8518 ft 139 kts 285°
2026-04-23 10:50 64.95602 -28.48934 8507 ft 139 kts 286°
2026-04-23 10:50 64.95925 -28.51084 8505 ft 139 kts 283°
2026-04-23 10:51 64.96267 -28.53241 8506 ft 141 kts 288°
2026-04-23 10:51 64.96610 -28.55413 8507 ft 142 kts 286°
2026-04-23 10:51 64.96980 -28.57552 8516 ft 139 kts 282°
2026-04-23 10:51 64.97331 -28.59681 8517 ft 139 kts 287°
2026-04-23 10:52 64.97610 -28.61855 8521 ft 139 kts 292°
2026-04-23 10:52 64.97981 -28.63961 8526 ft 138 kts 282°
2026-04-23 10:52 64.98273 -28.66143 8524 ft 141 kts 287°
2026-04-23 10:52 64.98622 -28.68326 8524 ft 143 kts 288°
2026-04-23 10:53 64.98969 -28.70533 8526 ft 144 kts 287°
2026-04-23 10:53 64.99314 -28.72751 8528 ft 144 kts 287°
2026-04-23 10:53 64.99658 -28.74974 8528 ft 144 kts 287°
2026-04-23 10:53 65.00033 -28.77149 8528 ft 142 kts 286°
2026-04-23 10:54 65.00315 -28.79363 8526 ft 141 kts 285°
2026-04-23 10:54 65.00713 -28.81483 8524 ft 140 kts 289°
2026-04-23 10:54 65.01042 -28.83639 8527 ft 140 kts 289°
2026-04-23 10:54 65.01328 -28.85832 8528 ft 141 kts 284°
2026-04-23 10:55 65.01686 -28.87992 8534 ft 141 kts 288°
2026-04-23 10:55 65.02008 -28.90189 8527 ft 142 kts 295°
2026-04-23 10:55 65.02383 -28.92331 8525 ft 140 kts 284°
2026-04-23 10:55 65.02675 -28.94514 8524 ft 139 kts 284°
2026-04-23 10:56 65.02995 -28.96681 8524 ft 140 kts 285°
2026-04-23 10:56 65.03325 -28.98843 8525 ft 140 kts 285°
2026-04-23 10:56 65.03654 -29.01010 8524 ft 140 kts 284°
2026-04-23 10:56 65.03998 -29.03169 8527 ft 140 kts 290°
2026-04-23 10:57 65.04329 -29.05300 8523 ft 138 kts 279°
2026-04-23 10:57 65.04615 -29.07487 8518 ft 141 kts 287°
2026-04-23 10:57 65.04985 -29.09654 8521 ft 141 kts 287°
2026-04-23 10:57 65.05339 -29.11828 8524 ft 141 kts 294°
2026-04-23 10:58 65.05666 -29.13999 8522 ft 139 kts 283°
2026-04-23 10:58 65.05962 -29.16181 8521 ft 139 kts 281°
2026-04-23 10:58 65.06271 -29.18370 8518 ft 142 kts 289°
2026-04-23 10:58 65.06638 -29.20544 8518 ft 142 kts 292°
2026-04-23 10:59 65.06958 -29.22734 8518 ft 141 kts 284°
2026-04-23 10:59 65.07274 -29.24952 8517 ft 143 kts 287°
2026-04-23 10:59 65.07614 -29.27176 8518 ft 144 kts 287°
2026-04-23 10:59 65.07952 -29.29414 8512 ft 145 kts 287°
2026-04-23 11:00 65.08289 -29.31664 8510 ft 145 kts 287°
2026-04-23 11:00 65.08669 -29.33860 8509 ft 142 kts 293°
2026-04-23 11:00 65.08991 -29.36046 8515 ft 139 kts 290°
2026-04-23 11:00 65.09304 -29.38194 8514 ft 136 kts 277°
2026-04-23 11:01 65.09576 -29.40374 8514 ft 139 kts 293°
2026-04-23 11:01 65.09937 -29.42496 8510 ft 140 kts 284°
2026-04-23 11:01 65.10283 -29.44664 8512 ft 140 kts 291°
2026-04-23 11:01 65.10560 -29.46853 8520 ft 139 kts 288°
2026-04-23 11:02 65.10889 -29.48981 8526 ft 138 kts 285°
2026-04-23 11:02 65.11197 -29.51135 8532 ft 137 kts 285°
2026-04-23 11:02 65.11510 -29.53278 8529 ft 137 kts 285°
2026-04-23 11:02 65.11825 -29.55409 8534 ft 137 kts 285°
2026-04-23 11:03 65.12139 -29.57538 8530 ft 137 kts 285°
2026-04-23 11:03 65.12457 -29.59685 8533 ft 138 kts 284°
2026-04-23 11:03 65.12815 -29.61809 8530 ft 139 kts 291°
2026-04-23 11:03 65.13083 -29.63990 8533 ft 139 kts 283°
2026-04-23 11:04 65.13425 -29.66171 8521 ft 141 kts 288°
2026-04-23 11:04 65.13760 -29.68384 8505 ft 142 kts 294°
2026-04-23 11:04 65.14105 -29.70569 8478 ft 141 kts 280°
2026-04-23 11:04 65.14439 -29.72749 8453 ft 140 kts 287°
2026-04-23 11:05 65.14687 -29.74955 8430 ft 142 kts 283°
2026-04-23 11:05 65.15016 -29.77199 8398 ft 145 kts 287°
2026-04-23 11:05 65.15355 -29.79450 8408 ft 144 kts 287°
2026-04-23 11:05 65.15686 -29.81704 8410 ft 144 kts 286°
2026-04-23 11:06 65.16354 -29.86155 8404 ft 140 kts 280°
2026-04-23 11:06 65.16634 -29.88389 8404 ft 142 kts 286°
2026-04-23 11:06 65.16975 -29.90622 8398 ft 144 kts 287°
2026-04-23 11:07 65.17355 -29.92803 8397 ft 141 kts 289°
2026-04-23 11:07 65.17665 -29.94999 8395 ft 139 kts 285°
2026-04-23 11:07 65.17928 -29.97201 8395 ft 138 kts 278°
2026-04-23 11:07 65.18223 -29.99405 8389 ft 141 kts 295°
2026-04-23 11:08 65.18497 -30.01638 8385 ft 142 kts 278°
2026-04-23 11:08 65.18654 -30.03963 8388 ft 143 kts 278°
2026-04-23 11:08 65.18831 -30.06295 8395 ft 143 kts 279°
2026-04-23 11:08 65.19073 -30.08556 8385 ft 138 kts 294°
2026-04-23 11:09 65.19269 -30.10776 8359 ft 137 kts 274°
2026-04-23 11:09 65.19370 -30.13022 8362 ft 136 kts 277°
2026-04-23 11:09 65.19528 -30.15243 8364 ft 135 kts 275°
2026-04-23 11:09 65.19679 -30.17465 8358 ft 138 kts 279°
2026-04-23 11:10 65.19880 -30.19678 8358 ft 139 kts 285°
2026-04-23 11:10 65.20071 -30.21915 8356 ft 137 kts 277°
2026-04-23 11:10 65.20220 -30.24160 8357 ft 137 kts 278°
2026-04-23 11:10 65.20387 -30.26391 8357 ft 137 kts 279°
2026-04-23 11:11 65.20558 -30.28620 8357 ft 137 kts 279°
2026-04-23 11:11 65.20728 -30.30845 8357 ft 136 kts 279°
2026-04-23 11:11 65.20898 -30.33062 8358 ft 136 kts 279°
2026-04-23 11:11 65.21069 -30.35275 8351 ft 136 kts 282°
2026-04-23 11:12 65.21243 -30.37490 8349 ft 136 kts 279°
2026-04-23 11:12 65.21405 -30.39703 8349 ft 135 kts 279°
2026-04-23 11:12 65.21570 -30.41912 8349 ft 135 kts 279°
2026-04-23 11:12 65.21736 -30.44119 8348 ft 135 kts 279°
2026-04-23 11:13 65.21902 -30.46324 8348 ft 135 kts 279°
2026-04-23 11:13 65.22067 -30.48506 8349 ft 135 kts 279°
2026-04-23 11:13 65.22228 -30.50715 8349 ft 135 kts 278°
2026-04-23 11:13 65.22391 -30.52948 8343 ft 139 kts 280°
2026-04-23 11:14 65.22570 -30.55235 8344 ft 142 kts 280°
2026-04-23 11:14 65.22744 -30.57560 8334 ft 143 kts 283°
2026-04-23 11:14 65.22985 -30.59843 8324 ft 142 kts 281°
2026-04-23 11:14 65.23100 -30.62080 8339 ft 128 kts 276°
2026-04-23 11:15 65.23237 -30.64238 8322 ft 135 kts 279°
2026-04-23 11:15 65.23404 -30.66493 8319 ft 140 kts 280°
2026-04-23 11:15 65.23577 -30.68809 8322 ft 142 kts 279°
2026-04-23 11:15 65.23804 -30.71090 8317 ft 140 kts 292°
2026-04-23 11:16 65.23963 -30.73358 8307 ft 138 kts 274°
2026-04-23 11:16 65.24081 -30.75589 8305 ft 139 kts 277°
2026-04-23 11:16 65.24248 -30.77876 8309 ft 139 kts 297°
2026-04-23 11:16 65.24482 -30.80093 8285 ft 138 kts 276°
2026-04-23 11:17 65.24579 -30.82356 8291 ft 137 kts 277°
2026-04-23 11:17 65.24731 -30.84590 8292 ft 136 kts 279°
2026-04-23 11:17 65.24878 -30.86804 8291 ft 136 kts 278°
2026-04-23 11:17 65.25052 -30.89061 8288 ft 139 kts 280°
2026-04-23 11:18 65.25253 -30.91332 8286 ft 139 kts 292°
2026-04-23 11:18 65.25444 -30.93599 8270 ft 139 kts 276°
2026-04-23 11:18 65.25555 -30.95881 8274 ft 138 kts 278°
2026-04-23 11:18 65.25707 -30.98107 8275 ft 137 kts 279°
2026-04-23 11:19 65.25853 -31.00343 8273 ft 138 kts 279°
2026-04-23 11:19 65.26026 -31.02626 8270 ft 142 kts 280°
2026-04-23 11:19 65.26197 -31.04959 8270 ft 143 kts 279°
2026-04-23 11:19 65.26366 -31.07315 8266 ft 144 kts 279°
2026-04-23 11:20 65.26533 -31.09684 8269 ft 145 kts 279°
2026-04-23 11:20 65.26702 -31.12061 8269 ft 145 kts 279°
2026-04-23 11:20 65.26870 -31.14443 8270 ft 146 kts 279°
2026-04-23 11:20 65.27038 -31.16831 8270 ft 146 kts 279°
2026-04-23 11:21 65.27206 -31.19222 8271 ft 146 kts 279°
2026-04-23 11:21 65.27374 -31.21616 8272 ft 146 kts 279°
2026-04-23 11:21 65.27542 -31.24021 8271 ft 147 kts 279°
2026-04-23 11:21 65.27710 -31.26425 8271 ft 147 kts 279°
2026-04-23 11:22 65.27877 -31.28826 8272 ft 146 kts 279°
2026-04-23 11:22 65.28044 -31.31228 8279 ft 147 kts 283°
2026-04-23 11:22 65.28221 -31.33628 8294 ft 146 kts 280°
2026-04-23 11:22 65.28377 -31.36022 8318 ft 146 kts 280°
2026-04-23 11:23 65.28539 -31.38405 8340 ft 145 kts 281°
2026-04-23 11:23 65.28703 -31.40785 8365 ft 145 kts 281°
2026-04-23 11:23 65.28866 -31.43173 8369 ft 146 kts 281°
2026-04-23 11:23 65.29023 -31.45584 8361 ft 148 kts 279°
2026-04-23 11:24 65.29194 -31.48011 8363 ft 149 kts 281°
2026-04-23 11:24 65.29361 -31.50420 8364 ft 149 kts 280°
2026-04-23 11:24 65.29528 -31.52870 8364 ft 149 kts 280°
2026-04-23 11:24 65.29696 -31.55348 8365 ft 149 kts 280°
2026-04-23 11:25 65.29859 -31.57762 8358 ft 149 kts 280°
2026-04-23 11:25 65.30025 -31.60211 8358 ft 149 kts 280°
2026-04-23 11:25 65.30188 -31.62654 8358 ft 149 kts 280°
2026-04-23 11:25 65.30353 -31.65102 8358 ft 149 kts 280°
2026-04-23 11:26 65.30517 -31.67558 8354 ft 149 kts 280°
2026-04-23 11:26 65.30680 -31.70007 8355 ft 149 kts 275°
2026-04-23 11:26 65.30720 -31.72435 8314 ft 147 kts 278°
2026-04-23 11:26 65.30876 -31.74016 8313 ft 148 kts 286°
2026-04-23 11:27 65.31091 -31.76399 8323 ft 146 kts 282°
2026-04-23 11:27 65.31262 -31.78793 8324 ft 145 kts 281°
2026-04-23 11:27 65.31450 -31.81160 8318 ft 146 kts 282°
2026-04-23 11:27 65.31592 -31.83577 8316 ft 148 kts 278°
2026-04-23 11:28 65.31739 -31.86017 8318 ft 148 kts 279°
2026-04-23 11:28 65.31897 -31.88448 8319 ft 148 kts 280°
2026-04-23 11:28 65.32056 -31.90884 8319 ft 149 kts 280°
2026-04-23 11:28 65.32216 -31.93331 8320 ft 149 kts 279°
2026-04-23 11:29 65.32375 -31.95789 8319 ft 150 kts 280°
2026-04-23 11:29 65.32535 -31.98252 8319 ft 150 kts 280°
2026-04-23 11:29 65.32694 -32.00717 8320 ft 150 kts 280°
2026-04-23 11:29 65.32783 -32.03169 8303 ft 147 kts 267°
2026-04-23 11:30 65.32939 -32.05561 8280 ft 148 kts 284°
2026-04-23 11:30 65.33129 -32.07979 8289 ft 147 kts 279°
2026-04-23 11:30 65.33303 -32.10372 8291 ft 145 kts 281°
2026-04-23 11:30 65.33465 -32.12753 8292 ft 144 kts 280°
2026-04-23 11:31 65.33617 -32.15122 8292 ft 144 kts 280°
2026-04-23 11:31 65.33766 -32.17486 8291 ft 144 kts 280°
2026-04-23 11:31 65.33916 -32.19861 8291 ft 144 kts 280°
2026-04-23 11:31 65.34065 -32.22233 8291 ft 144 kts 280°
2026-04-23 11:32 65.34246 -32.24588 8286 ft 144 kts 278°
2026-04-23 11:32 65.34362 -32.26984 8286 ft 145 kts 279°
2026-04-23 11:32 65.34517 -32.29369 8287 ft 144 kts 285°
2026-04-23 11:32 65.34658 -32.31753 8289 ft 145 kts 270°
2026-04-23 11:33 65.34704 -32.34128 8257 ft 143 kts 282°
2026-04-23 11:33 65.34936 -32.36455 8262 ft 144 kts 282°
2026-04-23 11:33 65.35096 -32.38791 8265 ft 144 kts 280°
2026-04-23 11:33 65.35248 -32.41200 8267 ft 144 kts 280°
2026-04-23 11:34 65.35420 -32.43527 8261 ft 144 kts 284°
2026-04-23 11:34 65.35569 -32.45928 8254 ft 147 kts 277°
2026-04-23 11:34 65.35695 -32.48367 8254 ft 148 kts 278°
2026-04-23 11:34 65.35838 -32.50814 8256 ft 149 kts 279°
2026-04-23 11:35 65.35988 -32.53280 8249 ft 150 kts 279°
2026-04-23 11:35 65.36139 -32.55767 8247 ft 152 kts 279°
2026-04-23 11:35 65.36292 -32.58277 8248 ft 153 kts 279°
2026-04-23 11:35 65.36445 -32.60799 8248 ft 153 kts 279°
2026-04-23 11:36 65.36597 -32.63330 8248 ft 154 kts 279°
2026-04-23 11:36 65.36749 -32.65866 8249 ft 154 kts 279°
2026-04-23 11:36 65.36901 -32.68406 8249 ft 154 kts 279°
2026-04-23 11:36 65.37051 -32.70921 8249 ft 154 kts 279°
2026-04-23 11:37 65.37203 -32.73463 8251 ft 154 kts 279°
2026-04-23 11:37 65.37354 -32.76007 8254 ft 154 kts 279°
2026-04-23 11:37 65.37505 -32.78551 8254 ft 154 kts 279°
2026-04-23 11:37 65.37655 -32.81091 8254 ft 154 kts 279°
2026-04-23 11:38 65.37804 -32.83633 8254 ft 154 kts 279°
2026-04-23 11:38 65.37954 -32.86181 8254 ft 154 kts 279°
2026-04-23 11:38 65.38103 -32.88723 8254 ft 154 kts 278°
2026-04-23 11:38 65.38251 -32.91264 8253 ft 154 kts 278°
2026-04-23 11:39 65.38399 -32.93805 8249 ft 154 kts 278°
2026-04-23 11:39 65.38546 -32.96346 8249 ft 154 kts 278°
2026-04-23 11:39 65.38693 -32.98889 8249 ft 154 kts 278°
2026-04-23 11:39 65.38840 -33.01439 8249 ft 154 kts 278°
2026-04-23 11:40 65.38986 -33.03981 8245 ft 154 kts 278°
2026-04-23 11:40 65.39132 -33.06529 8245 ft 154 kts 278°
2026-04-23 11:40 65.39278 -33.09082 8245 ft 154 kts 278°
2026-04-23 11:40 65.39426 -33.11624 8246 ft 153 kts 282°
2026-04-23 11:41 65.39587 -33.14148 8245 ft 154 kts 278°
2026-04-23 11:41 65.39738 -33.16680 8245 ft 152 kts 286°
2026-04-23 11:41 65.39897 -33.19189 8232 ft 153 kts 276°
2026-04-23 11:41 65.40011 -33.21731 8236 ft 152 kts 280°
2026-04-23 11:42 65.40143 -33.24218 8236 ft 152 kts 278°
2026-04-23 11:42 65.40273 -33.26736 8236 ft 152 kts 279°
2026-04-23 11:42 65.40412 -33.29236 8260 ft 151 kts 279°
2026-04-23 11:42 65.40551 -33.31721 8285 ft 150 kts 279°
2026-04-23 11:43 65.40688 -33.34201 8306 ft 150 kts 279°
2026-04-23 11:43 65.40825 -33.36678 8330 ft 150 kts 279°
2026-04-23 11:43 65.40962 -33.39156 8341 ft 150 kts 279°
2026-04-23 11:43 65.41099 -33.41651 8341 ft 151 kts 279°
2026-04-23 11:44 65.41236 -33.44154 8342 ft 151 kts 279°
2026-04-23 11:44 65.41372 -33.46659 8342 ft 152 kts 279°
2026-04-23 11:44 65.41510 -33.49178 8343 ft 152 kts 279°
2026-04-23 11:44 65.41646 -33.51694 8343 ft 152 kts 279°
2026-04-23 11:45 65.41782 -33.54216 8341 ft 153 kts 279°
2026-04-23 11:45 65.41918 -33.56745 8342 ft 153 kts 279°
2026-04-23 11:45 65.42054 -33.59277 8343 ft 153 kts 279°
2026-04-23 11:45 65.42190 -33.61809 8343 ft 153 kts 279°
2026-04-23 11:46 65.42320 -33.64344 8338 ft 153 kts 274°
2026-04-23 11:46 65.42439 -33.66854 8336 ft 154 kts 278°
2026-04-23 11:46 65.42591 -33.69407 8336 ft 155 kts 278°
2026-04-23 11:46 65.42730 -33.71973 8336 ft 155 kts 277°
2026-04-23 11:47 65.42865 -33.74543 8340 ft 155 kts 277°
2026-04-23 11:47 65.42999 -33.77109 8341 ft 155 kts 277°
2026-04-23 11:47 65.43136 -33.79681 8338 ft 156 kts 278°
2026-04-23 11:47 65.43271 -33.82277 8338 ft 157 kts 277°
2026-04-23 11:48 65.43405 -33.84884 8339 ft 157 kts 278°
2026-04-23 11:48 65.43539 -33.87494 8339 ft 157 kts 278°
2026-04-23 11:48 65.43675 -33.90106 8340 ft 158 kts 278°
2026-04-23 11:48 65.43809 -33.92720 8340 ft 158 kts 277°
2026-04-23 11:49 65.43943 -33.95335 8337 ft 158 kts 278°
2026-04-23 11:49 65.44076 -33.97951 8337 ft 158 kts 277°
2026-04-23 11:49 65.44210 -34.00568 8337 ft 158 kts 277°
2026-04-23 11:49 65.44342 -34.03186 8332 ft 158 kts 277°
2026-04-23 11:50 65.44475 -34.05806 8330 ft 158 kts 277°
2026-04-23 11:50 65.44607 -34.08430 8330 ft 158 kts 277°
2026-04-23 11:50 65.44739 -34.11057 8330 ft 158 kts 277°
2026-04-23 11:50 65.44870 -34.13687 8330 ft 158 kts 277°
2026-04-23 11:51 65.45001 -34.16309 8329 ft 158 kts 277°
2026-04-23 11:51 65.45131 -34.18939 8329 ft 158 kts 277°
2026-04-23 11:51 65.45261 -34.21574 8329 ft 158 kts 277°
2026-04-23 11:51 65.45391 -34.24197 8329 ft 158 kts 277°
2026-04-23 11:52 65.45520 -34.26830 8332 ft 158 kts 277°
2026-04-23 11:52 65.45649 -34.29454 8332 ft 158 kts 277°
2026-04-23 11:52 65.45777 -34.32085 8332 ft 158 kts 277°
2026-04-23 11:52 65.45905 -34.34723 8332 ft 158 kts 277°
2026-04-23 11:53 65.46032 -34.37356 8330 ft 159 kts 277°
2026-04-23 11:53 65.46158 -34.39961 8330 ft 159 kts 277°
2026-04-23 11:53 65.46284 -34.42596 8330 ft 159 kts 277°
2026-04-23 11:53 65.46411 -34.45231 8330 ft 159 kts 277°
2026-04-23 11:54 65.46536 -34.47867 8329 ft 159 kts 277°
2026-04-23 11:54 65.46662 -34.50510 8329 ft 159 kts 277°
2026-04-23 11:54 65.46786 -34.53148 8326 ft 159 kts 277°
2026-04-23 11:54 65.46911 -34.55781 8326 ft 159 kts 277°
2026-04-23 11:55 65.47034 -34.58420 8326 ft 159 kts 277°
2026-04-23 11:55 65.47158 -34.61060 8326 ft 159 kts 277°
2026-04-23 11:55 65.47281 -34.63699 8326 ft 159 kts 277°
2026-04-23 11:55 65.47404 -34.66339 8326 ft 159 kts 277°
2026-04-23 11:56 65.47526 -34.68979 8326 ft 159 kts 277°
2026-04-23 11:56 65.47647 -34.71621 8326 ft 159 kts 277°
2026-04-23 11:56 65.47769 -34.74263 8326 ft 159 kts 277°
2026-04-23 11:56 65.47889 -34.76903 8328 ft 159 kts 276°
2026-04-23 11:57 65.48010 -34.79542 8328 ft 159 kts 276°
2026-04-23 11:57 65.48129 -34.82180 8328 ft 158 kts 276°
2026-04-23 11:57 65.48248 -34.84817 8328 ft 158 kts 276°
2026-04-23 11:57 65.48367 -34.87460 8328 ft 158 kts 276°
2026-04-23 11:58 65.48485 -34.90091 8328 ft 158 kts 276°
2026-04-23 11:58 65.48603 -34.92728 8328 ft 158 kts 276°
2026-04-23 11:58 65.48720 -34.95365 8328 ft 158 kts 276°
2026-04-23 11:58 65.48837 -34.98004 8330 ft 158 kts 276°
2026-04-23 11:59 65.48953 -35.00633 8330 ft 158 kts 276°
2026-04-23 11:59 65.49069 -35.03267 8319 ft 158 kts 277°
2026-04-23 11:59 65.49186 -35.05912 8318 ft 159 kts 276°
2026-04-23 11:59 65.49301 -35.08567 8318 ft 159 kts 276°
2026-04-23 12:00 65.49414 -35.11189 8318 ft 160 kts 276°
2026-04-23 12:00 65.49529 -35.13855 8318 ft 160 kts 276°
2026-04-23 12:00 65.49643 -35.16518 8318 ft 160 kts 276°
2026-04-23 12:00 65.49758 -35.19185 8318 ft 160 kts 276°
2026-04-23 12:01 65.49872 -35.21855 8319 ft 160 kts 276°
2026-04-23 12:01 65.49986 -35.24524 8319 ft 160 kts 276°
2026-04-23 12:01 65.50098 -35.27191 8319 ft 160 kts 276°
2026-04-23 12:01 65.50211 -35.29857 8319 ft 160 kts 276°
2026-04-23 12:02 65.50322 -35.32522 8319 ft 160 kts 276°
2026-04-23 12:02 65.50434 -35.35188 8319 ft 160 kts 276°
2026-04-23 12:02 65.50545 -35.37854 8319 ft 160 kts 276°
2026-04-23 12:02 65.50655 -35.40519 8319 ft 160 kts 276°
2026-04-23 12:03 65.50765 -35.43182 8323 ft 160 kts 276°
2026-04-23 12:03 65.50874 -35.45845 8323 ft 160 kts 276°
2026-04-23 12:03 65.50983 -35.48515 8323 ft 160 kts 276°
2026-04-23 12:03 65.51093 -35.51180 8323 ft 160 kts 276°
2026-04-23 12:04 65.51200 -35.53846 8316 ft 160 kts 276°
2026-04-23 12:04 65.51308 -35.56511 8316 ft 160 kts 276°
2026-04-23 12:04 65.51415 -35.59176 8316 ft 160 kts 276°
2026-04-23 12:04 65.51521 -35.61841 8316 ft 160 kts 276°
2026-04-23 12:05 65.51626 -35.64471 8316 ft 160 kts 276°
2026-04-23 12:05 65.51732 -35.67145 8316 ft 160 kts 276°
2026-04-23 12:05 65.51838 -35.69815 8316 ft 160 kts 276°
2026-04-23 12:05 65.51943 -35.72486 8316 ft 160 kts 276°
2026-04-23 12:06 65.52047 -35.75158 8317 ft 160 kts 276°
2026-04-23 12:06 65.52151 -35.77831 8317 ft 160 kts 276°
2026-04-23 12:06 65.52358 -35.83177 8317 ft 160 kts 276°
2026-04-23 12:07 65.52460 -35.85850 8313 ft 160 kts 276°
2026-04-23 12:07 65.52562 -35.88521 8320 ft 160 kts 276°
2026-04-23 12:07 65.52663 -35.91185 8314 ft 159 kts 276°
2026-04-23 12:07 65.52764 -35.93842 8314 ft 159 kts 276°
2026-04-23 12:08 65.52864 -35.96494 8318 ft 159 kts 276°
2026-04-23 12:08 65.52964 -35.99151 8317 ft 159 kts 276°
2026-04-23 12:08 65.53063 -36.01801 8317 ft 159 kts 276°